GW0484 Weather Reports


Display with metric or nautical units.
time (UTC)temp
F
wind
direction
speed
MPH
gust
MPH
rain 1hr
in
rain 24hr
in
rain mn
in
humidity
%
barometer
mb
20260509232916 63 246 4.0 5.0 0.00 0.00 0.00 66 1013.2
20260509232414 62 182 2.0 2.0 0.00 0.00 0.00 66 1013.5
20260509231909 64 231 5.0 6.0 0.00 0.00 0.00 67 1013.1
20260509231407 66 214 8.0 9.0 0.00 0.00 0.00 56 1013.1
20260509230905 65 161 1.0 1.0 0.00 0.00 0.00 56 1013.0
20260509230401 66 194 4.0 5.0 0.00 0.00 0.00 56 1013.2
20260509225857 65 172 3.0 3.0 0.00 0.00 0.00 56 1013.2
20260509225354 65 157 2.0 2.0 0.00 0.00 0.00 56 1013.1
20260509224849 66 210 3.0 3.0 0.00 0.00 0.00 55 1013.2
20260509224345 65 202 5.0 5.0 0.00 0.00 0.00 56 1013.1
20260509223843 65 241 6.0 7.0 0.00 0.00 0.00 56 1013.4
20260509223339 65 129 0.0 0.0 0.00 0.00 0.00 55 1013.4
20260509222837 66 195 3.0 5.0 0.00 0.00 0.00 55 1013.1
20260509222332 65 261 2.0 3.0 0.00 0.00 0.00 55 1013.4
20260509221827 66 298 5.0 7.0 0.00 0.00 0.00 55 1013.4
20260509221325 66 251 9.0 10.0 0.00 0.00 0.00 54 1013.2
20260509220825 66 213 5.0 6.0 0.00 0.00 0.00 54 1013.6
20260509220321 66 125 0.0 0.0 0.00 0.00 0.00 55 1013.5
20260509215817 65 148 1.0 1.0 0.00 0.00 0.00 55 1013.5
20260509215314 65 236 5.0 5.0 0.00 0.00 0.00 54 1013.5
20260509214811 65 189 1.0 2.0 0.00 0.00 0.00 54 1013.7
20260509214308 65 203 2.0 3.0 0.00 0.00 0.00 54 1013.7
20260509213805 66 239 3.0 3.0 0.00 0.00 0.00 54 1013.5
20260509213300 66 305 3.0 3.0 0.00 0.00 0.00 54 1013.9
20260509212758 66 207 3.0 3.0 0.00 0.00 0.00 54 1013.6
20260509212255 67 231 6.0 7.0 0.00 0.00 0.00 55 1013.6
20260509211751 66 223 6.0 7.0 0.00 0.00 0.00 54 1013.6
20260509211247 65 269 3.0 3.0 0.00 0.00 0.00 54 1013.9
20260509210744 65 237 5.0 7.0 0.00 0.00 0.00 54 1013.7
20260509210242 66 257 5.0 8.0 0.00 0.00 0.00 54 1013.7
20260509205741 65 198 3.0 5.0 0.00 0.00 0.00 54 1013.5
20260509205236 67 230 6.0 6.0 0.00 0.00 0.00 52 1013.7
20260509204732 66 329 3.0 5.0 0.00 0.00 0.00 53 1013.8
20260509204229 66 245 4.0 5.0 0.00 0.00 0.00 54 1013.8
20260509203725 67 212 7.0 9.0 0.00 0.00 0.00 52 1013.7
20260509203223 67 165 6.0 7.0 0.00 0.00 0.00 53 1013.8
20260509202719 65 13 2.0 2.0 0.00 0.00 0.00 53 1013.8
20260509202214 64 277 4.0 5.0 0.00 0.00 0.00 53 1013.7
20260509201709 65 221 8.0 9.0 0.00 0.00 0.00 52 1013.6
20260509201206 67 217 9.0 11.0 0.00 0.00 0.00 53 1013.4
20260509200702 66 181 2.0 3.0 0.00 0.00 0.00 51 1013.4
20260509200157 66 236 8.0 9.0 0.00 0.00 0.00 52 1013.7
20260509195654 65 213 5.0 6.0 0.00 0.00 0.00 53 1013.5
20260509195149 66 235 11.0 11.0 0.00 0.00 0.00 52 1013.6
20260509194643 67 218 4.0 5.0 0.00 0.00 0.00 52 1013.7
20260509194140 66 328 1.0 5.0 0.00 0.00 0.00 54 1013.6
20260509193636 65 190 2.0 5.0 0.00 0.00 0.00 53 1013.5
20260509193132 64 167 8.0 9.0 0.00 0.00 0.00 54 1013.7
20260509192629 64 175 6.0 7.0 0.00 0.00 0.00 53 1013.7
20260509192123 63 235 6.0 7.0 0.00 0.00 0.00 53 1013.7
20260509191618 64 231 9.0 10.0 0.00 0.00 0.00 53 1013.7
20260509191115 64 171 2.0 2.0 0.00 0.00 0.00 53 1013.9
20260509190611 63 181 3.0 3.0 0.00 0.00 0.00 53 1013.8
20260509190109 64 208 6.0 7.0 0.00 0.00 0.00 53 1013.9
20260509185606 64 271 6.0 7.0 0.00 0.00 0.00 53 1013.5
20260509185102 63 174 1.0 2.0 0.00 0.00 0.00 53 1013.8
20260509184601 63 239 9.0 9.0 0.00 0.00 0.00 53 1013.6
20260509184057 64 159 2.0 2.0 0.00 0.00 0.00 53 1013.7
20260509183552 63 163 4.0 5.0 0.00 0.00 0.00 54 1013.9
20260509183048 64 151 3.0 3.0 0.00 0.00 0.00 53 1013.8
20260509182545 64 154 3.0 5.0 0.00 0.00 0.00 53 1013.5
20260509182042 64 156 2.0 2.0 0.00 0.00 0.00 53 1013.7
20260509181540 63 93 2.0 2.0 0.00 0.00 0.00 52 1013.5
20260509181037 64 145 0.0 0.0 0.00 0.00 0.00 52 1013.6
20260509180532 63 176 2.0 3.0 0.00 0.00 0.00 53 1013.7
20260509180030 63 136 2.0 2.0 0.00 0.00 0.00 53 1013.6
20260509175526 63 142 0.0 0.0 0.00 0.00 0.00 53 1013.6
20260509175023 63 147 1.0 1.0 0.00 0.00 0.00 53 1013.5
20260509174519 63 125 0.0 0.0 0.00 0.00 0.00 53 1013.5
20260509174014 62 137 0.0 0.0 0.00 0.00 0.00 54 1013.4
20260509173509 62 139 3.0 3.0 0.00 0.00 0.00 54 1013.6
20260509173005 62 98 4.0 5.0 0.00 0.00 0.00 53 1013.2
20260509172502 62 127 3.0 5.0 0.00 0.00 0.00 53 1013.2
20260509171958 62 198 3.0 3.0 0.00 0.00 0.00 52 1013.4
20260509171454 63 170 6.0 7.0 0.00 0.00 0.00 52 1013.4
20260509170951 64 170 3.0 3.0 0.00 0.00 0.00 53 1013.4
20260509170446 66 239 3.0 5.0 0.00 0.00 0.00 53 1013.2
20260509165942 65 136 1.0 1.0 0.00 0.00 0.00 53 1013.4
20260509165442 65 141 0.0 0.0 0.00 0.00 0.00 53 1013.2
20260509164937 64 130 0.0 0.0 0.00 0.00 0.00 55 1013.4
20260509164434 62 112 3.0 3.0 0.00 0.00 0.00 56 1013.4
20260509163929 62 134 0.0 0.0 0.00 0.00 0.00 56 1013.1
20260509163427 63 173 2.0 2.0 0.00 0.00 0.00 58 1013.4
20260509162926 62 112 0.0 0.0 0.00 0.00 0.00 58 1013.4
20260509162425 62 121 1.0 1.0 0.00 0.00 0.00 58 1013.2
20260509161921 61 125 2.0 2.0 0.00 0.00 0.00 58 1012.9
20260509161417 61 133 0.0 0.0 0.00 0.00 0.00 59 1013.2
20260509160913 61 194 3.0 3.0 0.00 0.00 0.00 59 1013.1
20260509160408 61 162 4.0 5.0 0.00 0.00 0.00 59 1013.2
20260509155903 62 121 0.0 0.0 0.00 0.00 0.00 57 1013.1
20260509155401 61 133 0.0 0.0 0.00 0.00 0.00 58 1012.8
20260509154857 60 110 1.0 1.0 0.00 0.00 0.00 59 1013.0
20260509154353 61 146 1.0 2.0 0.00 0.00 0.00 59 1012.9
20260509153850 60 125 0.0 0.0 0.00 0.00 0.00 60 1012.9
20260509153347 60 126 1.0 2.0 0.00 0.00 0.00 61 1012.8
20260509152844 59 115 0.0 0.0 0.00 0.00 0.00 60 1012.8
20260509152340 59 134 0.0 0.0 0.00 0.00 0.00 61 1012.6
20260509151837 59 147 1.0 2.0 0.00 0.00 0.00 61 1012.7
20260509151333 58 170 3.0 3.0 0.00 0.00 0.00 62 1012.8
20260509150832 58 148 1.0 1.0 0.00 0.00 0.00 61 1012.7
20260509150329 58 165 2.0 2.0 0.00 0.00 0.00 61 1012.4
20260509145826 58 134 1.0 2.0 0.00 0.00 0.00 61 1012.9
20260509145321 58 135 0.0 1.0 0.00 0.00 0.00 61 1012.6
20260509144818 57 135 0.0 1.0 0.00 0.00 0.00 62 1012.4
20260509144315 58 94 3.0 3.0 0.00 0.00 0.00 62 1012.5
20260509143812 58 122 0.0 0.0 0.00 0.00 0.00 62 1012.5
20260509143309 57 68 3.0 3.0 0.00 0.00 0.00 61 1012.6
20260509142805 57 83 4.0 5.0 0.00 0.00 0.00 63 1012.4
20260509142302 56 105 0.0 0.0 0.00 0.00 0.00 65 1012.5
20260509141757 56 91 1.0 2.0 0.00 0.00 0.00 64 1012.5
20260509141254 56 102 3.0 3.0 0.00 0.00 0.00 65 1012.5
20260509140751 57 130 0.0 1.0 0.00 0.00 0.00 65 1012.2
20260509140248 57 115 0.0 0.0 0.00 0.00 0.00 64 1012.3
20260509135746 56 119 0.0 0.0 0.00 0.00 0.00 66 1012.3
20260509135243 55 128 0.0 0.0 0.00 0.00 0.00 67 1012.2
20260509134740 55 181 2.0 2.0 0.00 0.00 0.00 68 1012.0
20260509134238 55 165 2.0 2.0 0.00 0.00 0.00 68 1011.8
20260509133735 54 151 1.0 2.0 0.00 0.00 0.00 67 1011.9
20260509133231 54 156 1.0 1.0 0.00 0.00 0.00 67 1011.9
20260509132730 54 188 3.0 3.0 0.00 0.00 0.00 68 1011.9
20260509132228 54 141 1.0 1.0 0.00 0.00 0.00 66 1011.8
20260509131724 53 107 0.0 0.0 0.00 0.00 0.00 66 1011.7
20260509131221 53 98 0.0 1.0 0.00 0.00 0.00 67 1011.7
20260509130717 53 69 3.0 3.0 0.00 0.00 0.00 67 1011.7
20260509130213 53 59 3.0 3.0 0.00 0.00 0.00 67 1011.5
20260509125710 52 113 0.0 0.0 0.00 0.00 0.00 67 1011.6
20260509125207 52 112 0.0 0.0 0.00 0.00 0.00 69 1011.3
20260509124703 52 144 0.0 0.0 0.00 0.00 0.00 69 1011.4
20260509124200 52 108 0.0 0.0 0.00 0.00 0.00 69 1011.2
20260509123658 52 152 1.0 2.0 0.00 0.00 0.00 68 1011.0
20260509123155 52 96 0.0 1.0 0.00 0.00 0.00 68 1011.1
20260509122650 52 281 3.0 3.0 0.00 0.00 0.00 67 1011.2
20260509122147 52 86 1.0 1.0 0.00 0.00 0.00 68 1011.1
20260509121644 52 112 0.0 0.0 0.00 0.00 0.00 68 1011.0
20260509121142 52 94 2.0 2.0 0.00 0.00 0.00 67 1011.1
20260509120640 52 107 1.0 2.0 0.00 0.00 0.00 67 1010.8
20260509120138 52 6 2.0 2.0 0.00 0.00 0.00 67 1010.8
20260509115635 51 19 2.0 2.0 0.00 0.00 0.00 68 1010.6
20260509115132 52 117 0.0 0.0 0.00 0.00 0.00 68 1010.7
20260509114630 52 319 0.0 0.0 0.00 0.00 0.00 68 1010.7
20260509114129 52 314 5.0 6.0 0.00 0.00 0.00 68 1010.8
20260509113627 52 305 6.0 7.0 0.00 0.00 0.00 67 1010.5
20260509113124 51 277 3.0 3.0 0.00 0.00 0.00 67 1010.7
20260509112620 51 278 5.0 6.0 0.00 0.00 0.00 69 1010.3
20260509112118 51 236 3.0 3.0 0.00 0.00 0.00 68 1010.5
20260509111615 51 173 1.0 1.0 0.00 0.00 0.00 68 1010.4
20260509111111 51 230 4.0 5.0 0.00 0.00 0.00 68 1010.3
20260509110609 52 118 1.0 1.0 0.00 0.00 0.00 68 1010.2
20260509110106 51 128 0.0 0.0 0.00 0.00 0.00 68 1010.3
20260509105604 51 95 1.0 1.0 0.00 0.00 0.00 67 1010.2
20260509105101 52 116 2.0 2.0 0.00 0.00 0.00 66 1010.1
20260509104558 52 57 0.0 0.0 0.00 0.00 0.00 66 1010.1
20260509104055 52 37 5.0 8.0 0.00 0.00 0.00 66 1010.1
20260509103553 51 13 5.0 7.0 0.00 0.00 0.00 66 1010.1
20260509103051 51 69 4.0 5.0 0.00 0.00 0.00 66 1009.9
20260509102547 51 59 1.0 2.0 0.00 0.00 0.00 67 1009.9
20260509102044 51 101 2.0 2.0 0.00 0.00 0.00 67 1009.6
20260509101540 52 121 0.0 0.0 0.00 0.00 0.00 66 1009.4
20260509101038 52 108 0.0 0.0 0.00 0.00 0.00 66 1009.5
20260509100535 52 86 1.0 2.0 0.00 0.00 0.00 65 1009.9
20260509100032 52 110 1.0 2.0 0.00 0.00 0.00 65 1009.6
20260509095529 52 122 0.0 0.0 0.00 0.00 0.00 66 1009.4
20260509095026 52 113 0.0 0.0 0.00 0.00 0.00 65 1009.5
20260509094522 52 89 1.0 1.0 0.00 0.00 0.00 65 1009.2
20260509094020 52 102 1.0 2.0 0.00 0.00 0.00 65 1009.3
20260509093518 53 117 0.0 0.0 0.00 0.00 0.00 65 1009.3
20260509093015 53 43 2.0 2.0 0.00 0.00 0.00 64 1009.1
20260509092513 53 116 1.0 1.0 0.00 0.00 0.00 64 1009.0
20260509092011 54 93 1.0 1.0 0.00 0.00 0.00 63 1009.2
20260509091508 53 83 0.0 1.0 0.00 0.00 0.00 63 1009.3
20260509091004 53 216 3.0 3.0 0.00 0.00 0.00 64 1009.0
20260509090502 53 69 0.0 0.0 0.00 0.00 0.00 64 1009.0
20260509090000 53 66 0.0 0.0 0.00 0.00 0.00 64 1009.0
20260509085456 53 39 3.0 3.0 0.00 0.00 0.00 64 1008.8
20260509084952 53 60 2.0 2.0 0.00 0.00 0.00 63 1008.9
20260509084449 53 101 0.0 0.0 0.00 0.00 0.00 63 1008.6
20260509083947 53 98 0.0 0.0 0.00 0.00 0.00 64 1008.8
20260509083444 53 98 0.0 0.0 0.00 0.00 0.00 63 1008.9
20260509082941 53 98 0.0 0.0 0.00 0.00 0.00 63 1008.8
20260509082438 54 97 0.0 0.0 0.00 0.00 0.00 63 1008.7
20260509081935 54 96 0.0 0.0 0.00 0.00 0.00 62 1008.6
20260509081432 55 94 0.0 0.0 0.00 0.00 0.00 61 1008.8
20260509080929 55 93 0.0 0.0 0.00 0.00 0.00 60 1008.4
20260509080427 56 88 0.0 0.0 0.00 0.00 0.00 60 1008.7
20260509075925 57 115 0.0 0.0 0.00 0.00 0.00 59 1008.7
20260509075422 58 60 2.0 2.0 0.00 0.00 0.00 58 1008.4
20260509074920 57 48 3.0 3.0 0.00 0.00 0.00 58 1008.7
20260509074417 57 37 5.0 6.0 0.00 0.00 0.00 58 1008.6
20260509073913 56 86 1.0 1.0 0.00 0.00 0.00 59 1008.7
20260509073410 56 104 0.0 0.0 0.00 0.00 0.00 59 1008.7
20260509072906 57 6 2.0 2.0 0.00 0.00 0.00 58 1008.7
20260509072403 57 296 4.0 5.0 0.00 0.00 0.00 58 1008.4
20260509071859 57 89 2.0 3.0 0.00 0.00 0.00 57 1008.6
20260509071356 58 117 0.0 0.0 0.00 0.00 0.00 57 1008.3
20260509070854 59 99 1.0 1.0 0.00 0.00 0.00 56 1008.4
20260509070350 59 45 3.0 3.0 0.00 0.00 0.00 56 1008.4
20260509065846 58 312 2.0 2.0 0.00 0.00 0.00 56 1008.3
20260509065343 58 340 4.0 5.0 0.00 0.00 0.00 56 1008.1
20260509064839 59 322 3.0 3.0 0.00 0.00 0.00 56 1008.2
20260509064337 59 328 5.0 7.0 0.00 0.00 0.00 55 1008.2
20260509063834 59 0 7.0 8.0 0.00 0.00 0.00 55 1008.1
20260509063330 59 258 5.0 7.0 0.00 0.00 0.00 54 1008.2
20260509062827 58 281 8.0 10.0 0.00 0.00 0.00 54 1008.0
20260509062324 58 303 7.0 8.0 0.00 0.00 0.00 54 1008.0
20260509061822 58 279 5.0 6.0 0.00 0.00 0.00 54 1007.8
20260509061320 59 313 4.0 6.0 0.00 0.00 0.00 53 1007.9
20260509060816 59 308 5.0 6.0 0.00 0.00 0.00 51 1007.7
20260509060313 60 282 7.0 8.0 0.00 0.00 0.00 50 1007.6
20260509055808 60 132 1.0 1.0 0.00 0.00 0.00 50 1007.7
20260509055306 61 45 3.0 5.0 0.00 0.00 0.00 49 1007.2
20260509054801 61 29 5.0 6.0 0.00 0.00 0.00 48 1007.2
20260509054258 61 327 1.0 3.0 0.00 0.00 0.00 52 1007.2
20260509053757 62 285 8.0 10.0 0.00 0.00 0.00 58 1006.9
20260509053253 62 294 6.0 7.0 0.00 0.00 0.00 57 1007.2
20260509052751 62 197 7.0 10.0 0.00 0.00 0.00 55 1007.1
20260509052249 62 286 14.0 16.0 0.00 0.00 0.00 56 1007.1
20260509051746 63 253 9.0 11.0 0.00 0.00 0.00 55 1007.1
20260509051244 63 275 13.0 17.0 0.00 0.00 0.00 54 1007.2
20260509050740 64 251 11.0 14.0 0.00 0.00 0.00 53 1007.0
20260509050237 64 259 14.0 18.0 0.00 0.00 0.00 52 1006.9
20260509045734 64 297 15.0 17.0 0.00 0.00 0.00 52 1007.0
20260509045231 65 263 11.0 13.0 0.00 0.00 0.00 51 1007.2
20260509044729 64 302 10.0 11.0 0.00 0.00 0.00 49 1007.0
20260509044226 64 337 8.0 9.0 0.00 0.00 0.00 42 1007.0
20260509043722 64 309 9.0 10.0 0.00 0.00 0.00 36 1006.7
20260509043218 64 29 3.0 6.0 0.00 0.00 0.00 36 1006.9
20260509042715 65 334 7.0 9.0 0.00 0.00 0.00 35 1006.9
20260509042211 64 345 9.0 13.0 0.00 0.00 0.00 36 1006.8
20260509041708 64 317 8.0 10.0 0.00 0.00 0.00 36 1006.7
20260509041205 65 313 7.0 9.0 0.00 0.00 0.00 35 1006.6
20260509040703 65 183 1.0 2.0 0.00 0.00 0.00 35 1006.4
20260509040200 66 303 4.0 5.0 0.00 0.00 0.00 34 1006.4
20260509035656 66 316 6.0 9.0 0.00 0.00 0.00 34 1006.3
20260509035153 66 315 6.0 8.0 0.00 0.00 0.00 35 1006.0
20260509034651 65 351 1.0 1.0 0.00 0.00 0.00 35 1006.0
20260509034148 65 255 4.0 5.0 0.00 0.00 0.00 35 1006.3
20260509033645 63 243 6.0 7.0 0.00 0.00 0.00 36 1006.0
20260509033142 63 253 9.0 10.0 0.00 0.00 0.00 36 1005.9
20260509032639 63 290 3.0 3.0 0.00 0.00 0.00 35 1005.7
20260509032136 63 112 2.0 3.0 0.00 0.00 0.00 36 1005.7
20260509031634 63 147 1.0 2.0 0.00 0.00 0.00 36 1005.6
20260509031131 64 119 0.0 0.0 0.00 0.00 0.00 36 1005.3
20260509030629 64 120 0.0 0.0 0.00 0.00 0.00 36 1005.2
20260509030126 65 11 5.0 6.0 0.00 0.00 0.00 34 1005.3
20260509025622 66 28 4.0 6.0 0.00 0.00 0.00 34 1005.1
20260509025118 66 119 0.0 1.0 0.00 0.00 0.00 34 1004.9
20260509024613 67 33 4.0 5.0 0.00 0.00 0.00 33 1004.6
20260509024109 68 20 3.0 3.0 0.00 0.00 0.00 32 1004.6
20260509023608 68 347 6.0 7.0 0.00 0.00 0.00 32 1004.3
20260509023104 68 28 6.0 7.0 0.00 0.00 0.00 32 1004.5
20260509022600 68 1 5.0 6.0 0.00 0.00 0.00 32 1004.4
20260509022059 69 36 7.0 8.0 0.00 0.00 0.00 31 1004.5
20260509021555 69 353 6.0 9.0 0.00 0.00 0.00 32 1004.3
20260509021053 69 32 7.0 8.0 0.00 0.00 0.00 31 1004.5
20260509020551 69 18 8.0 10.0 0.00 0.00 0.00 31 1004.3
20260509020047 70 359 8.0 10.0 0.00 0.00 0.00 31 1004.3
20260509015546 70 33 9.0 11.0 0.00 0.00 0.00 31 1004.2
20260509015043 70 353 5.0 8.0 0.00 0.00 0.00 31 1004.3
20260509014540 71 52 5.0 8.0 0.00 0.00 0.00 31 1004.2
20260509014036 71 354 9.0 13.0 0.00 0.00 0.00 30 1004.1
20260509013533 71 309 2.0 3.0 0.00 0.00 0.00 31 1004.2
20260509013028 71 353 8.0 14.0 0.00 0.00 0.00 30 1004.3
20260509012526 71 16 3.0 5.0 0.00 0.00 0.00 28 1004.2
20260509012022 72 2 4.0 6.0 0.00 0.00 0.00 27 1004.0
20260509011520 72 322 5.0 7.0 0.00 0.00 0.00 27 1004.2
20260509011017 72 15 3.0 7.0 0.00 0.00 0.00 27 1004.2
20260509010515 72 336 3.0 5.0 0.00 0.00 0.00 27 1004.2
20260509010012 72 72 1.0 2.0 0.00 0.00 0.00 28 1004.0
20260509005510 73 121 1.0 3.0 0.00 0.00 0.00 27 1003.9
20260509005009 73 147 2.0 3.0 0.00 0.00 0.00 28 1004.0
20260509004507 73 14 6.0 11.0 0.00 0.00 0.00 27 1004.0
20260509004004 73 256 2.0 6.0 0.00 0.00 0.00 27 1004.1
20260509003502 73 18 7.0 13.0 0.00 0.00 0.00 27 1004.1
20260509002958 73 40 7.0 14.0 0.00 0.00 0.00 27 1004.1
20260509002456 73 300 5.0 8.0 0.00 0.00 0.00 27 1004.1
20260509001953 73 117 8.0 15.0 0.00 0.00 0.00 26 1003.9
20260509001450 74 86 5.0 13.0 0.00 0.00 0.00 26 1003.9
20260509000946 73 84 12.0 16.0 0.00 0.00 0.00 26 1004.1
20260509000447 74 358 4.0 7.0 0.00 0.00 0.00 26 1004.1
20260508235940 74 307 9.0 14.0 0.00 0.00 0.00 26 1004.1
20260508235439 74 118 4.0 6.0 0.00 0.00 0.00 26 1004.2
20260508234935 74 19 13.0 18.0 0.00 0.00 0.00 26 1004.2
20260508234432 75 276 9.0 14.0 0.00 0.00 0.00 26 1003.7
20260508233929 75 3 8.0 17.0 0.00 0.00 0.00 26 1004.1
20260508233429 75 317 11.0 14.0 0.00 0.00 0.00 25 1004.1